Manhattan, KS

12:58 PM CST on February 24, 2018 (GMT -0600)
Manhattan Regional

Weather History for KMHK - April, 2014

Change the Weather History Date:

Wednesday, April 9, 2014

  Actual Average Record
Temperature  
Mean Temperature 56 °F 52 °F  
Max Temperature 83 °F 65 °F 90 °F (2011)
Min Temperature 28 °F 39 °F 19 °F (2003)
Degree Days  
Heating Degree Days 9 13  
Month to date heating degree days 161 132  
Since 1 July heating degree days 5442 4968  
Cooling Degree Days 0 0  
Month to date cooling degree days 0 0  
Year to date cooling degree days 0 2  
Growing Degree Days 5 (Base 50)    
Moisture  
Dew Point 32 °F    
Average Humidity 53    
Maximum Humidity 85    
Minimum Humidity 20    
Precipitation  
Precipitation 0.00 in 0.08 in 0.79 in (2009)
Month to date precipitation 0.54 0.53  
Year to date precipitation 2.29 4.45  
Sea Level Pressure  
Sea Level Pressure 29.91 in    
Wind  
Wind Speed 13 mph (SSW)    
Max Wind Speed 31 mph    
Max Gust Speed 39 mph    
Visibility 10 miles    
Events      
T = Trace of Precipitation, MM = Missing Value Source: NWS Daily Summary

Daily Weather History Graph

Daily Weather History Graph

Search for Another Location

Airport or City:

Trip Planner

Search our weather history database for the weather conditions in past years. The results will help you decide how hot, cold, wet, or windy it might be!

Date:

Astronomy

Apr. 09, 2014 Rise Set
Actual Time 6:58 AM CDT 7:58 PM CDT
Civil Twilight 6:31 AM CDT 8:25 PM CDT
Nautical Twilight 5:59 AM CDT 8:58 PM CDT
Astronomical Twilight 5:25 AM CDT 9:32 PM CDT
Moon 2:49 PM CDT (4/9) 3:46 AM CDT (4/9)
Length of Visible Light 13h 54m
Length of Day
12h 59m
Waxing Gibbous, 72% of the Moon is Illuminated
Apr 9
Waxing Gibbous
Apr 15
Full
Apr 22
Last Quarter
Apr 29
New
May 6
First Quarter

Hourly Weather History & Observations

Time (CDT) Temp. Dew Point Humidity Pressure Visibility Wind Dir Wind Speed Gust Speed Precip Events Conditions
12:52 AM 35.1 °F 25.0 °F 67% 30.11 in 10.0 mi Calm Calm - N/A   Clear
1:52 AM 34.0 °F 25.0 °F 70% 30.11 in 10.0 mi Calm Calm - N/A   Clear
2:52 AM 32.0 °F 26.1 °F 79% 30.09 in 10.0 mi Calm Calm - N/A   Clear
3:52 AM 30.9 °F 24.1 °F 76% 30.09 in 10.0 mi Calm Calm - N/A   Clear
4:52 AM 28.9 °F 24.1 °F 82% 30.10 in 10.0 mi Calm Calm - N/A   Clear
5:52 AM 30.0 °F 24.1 °F 79% 30.09 in 10.0 mi Calm Calm - N/A   Clear
6:52 AM 30.0 °F 25.0 °F 82% 30.09 in 10.0 mi Calm Calm - N/A   Clear
7:52 AM 34.0 °F 28.0 °F 79% 30.08 in 10.0 mi Calm Calm - N/A   Clear
8:52 AM 48.9 °F 28.0 °F 44% 30.08 in 10.0 mi South 5.8 mph - N/A   Clear
9:52 AM 59.0 °F 24.1 °F 26% 30.04 in 10.0 mi SSW 17.3 mph - N/A   Clear
10:52 AM 66.0 °F 27.0 °F 23% 30.01 in 10.0 mi SSW 20.7 mph 28.8 mph N/A   Clear
11:52 AM 71.1 °F 30.0 °F 22% 29.96 in 10.0 mi SSW 20.7 mph 28.8 mph N/A   Clear
12:52 PM 75.0 °F 33.1 °F 22% 29.90 in 10.0 mi SSW 21.9 mph 35.7 mph N/A   Clear
1:52 PM 77.0 °F 35.1 °F 22% 29.86 in 10.0 mi SSW 28.8 mph 35.7 mph N/A   Clear
2:52 PM 80.1 °F 36.0 °F 20% 29.82 in 10.0 mi SSW 26.5 mph 36.8 mph N/A   Clear
3:52 PM 82.9 °F 37.9 °F 20% 29.78 in 10.0 mi SW 19.6 mph 33.4 mph N/A   Clear
4:52 PM 82.9 °F 37.0 °F 19% 29.75 in 10.0 mi SW 18.4 mph 28.8 mph N/A   Clear
5:52 PM 82.0 °F 39.0 °F 22% 29.73 in 10.0 mi SSW 16.1 mph - N/A   Clear
6:52 PM 80.1 °F 37.9 °F 22% 29.71 in 10.0 mi SSW 16.1 mph 26.5 mph N/A   Clear
7:52 PM 78.1 °F 37.9 °F 24% 29.70 in 10.0 mi SSW 13.8 mph 24.2 mph N/A   Clear
8:52 PM 75.0 °F 37.9 °F 26% 29.69 in 10.0 mi SW 12.7 mph - N/A   Clear
9:52 PM 73.0 °F 39.0 °F 29% 29.69 in 10.0 mi SSW 19.6 mph - N/A   Clear
10:52 PM 71.1 °F 39.0 °F 31% 29.69 in 10.0 mi SW 20.7 mph 32.2 mph N/A   Clear
11:52 PM 70.0 °F 39.0 °F 32% 29.68 in 10.0 mi SW 21.9 mph 32.2 mph N/A   Clear